Date,TemperatureHighF,TemperatureAvgF,TemperatureLowF,DewpointHighF,DewpointAvgF,DewpointLowF,HumidityHigh,HumidityAvg,HumidityLow,PressureMaxIn,PressureMinIn,WindSpeedMaxMPH,WindSpeedAvgMPH,GustSpeedMaxMPH,PrecipitationSumIn
2013-1-1,29,18,13,20,15,10,93,86,66,30.51,30.39,8,2,9,0.00
2013-1-2,18,16,15,15,13,12,92,89,86,30.49,30.37,3,1,4,0.00
2013-1-3,28,16,11,16,12,8,89,82,60,30.37,30.22,5,1,7,0.00
2013-1-4,48,26,17,25,17,12,85,70,39,30.35,30.23,7,2,8,0.00
2013-1-5,28,22,16,25,19,13,92,88,79,30.26,30.16,3,0,3,0.00
2013-1-6,50,30,20,32,25,18,92,80,51,30.19,30.08,7,2,10,0.00
2013-1-7,54,42,34,39,33,26,82,68,51,30.15,30.00,14,5,14,0.29
2013-1-8,55,45,38,39,35,32,80,70,53,30.16,29.97,13,4,13,0.00
2013-1-9,49,39,28,34,29,21,79,66,47,29.98,29.75,19,6,19,0.00
2013-1-10,36,28,22,28,22,17,90,76,54,29.99,29.89,7,2,11,0.00
2013-1-11,35,24,17,22,17,12,84,75,56,30.20,29.98,9,2,12,0.00
2013-1-12,36,18,11,20,11,6,83,74,45,30.28,30.19,6,2,7,0.00
2013-1-13,35,18,7,16,10,2,84,72,42,30.38,30.26,5,1,6,0.00
2013-1-14,44,25,12,25,14,6,81,65,36,30.42,30.29,9,2,9,0.00
2013-1-15,54,30,19,27,20,13,80,67,34,30.55,30.40,8,2,9,0.00
2013-1-16,60,35,22,25,20,15,75,58,25,30.56,30.44,8,2,8,0.00
2013-1-17,57,36,25,25,20,17,72,55,27,30.48,30.34,9,2,11,0.00
2013-1-18,51,35,25,25,19,16,69,55,34,30.37,30.29,8,2,10,0.00
2013-1-19,61,36,23,27,20,16,74,57,22,30.38,30.29,8,2,8,0.00
2013-1-20,49,31,21,26,20,14,86,65,37,30.42,30.31,5,1,5,0.00
2013-1-21,48,27,17,26,19,12,88,73,33,30.32,30.18,9,1,9,0.00
2013-1-22,28,21,17,23,18,14,91,89,82,30.21,30.06,7,1,7,0.00
2013-1-23,34,27,23,30,24,20,91,89,82,30.12,29.89,7,2,9,0.00
2013-1-24,54,37,29,39,32,27,93,83,48,30.18,30.09,5,1,5,0.00
2013-1-25,48,43,36,43,39,33,94,85,77,30.13,29.94,9,3,9,0.41
2013-1-26,44,37,30,36,27,24,90,68,49,30.02,29.91,14,3,14,0.00
2013-1-27,40,33,27,28,25,23,84,73,52,30.07,30.00,12,2,12,0.00
2013-1-28,38,36,32,31,29,26,86,76,69,30.09,29.99,13,4,16,0.00
2013-1-29,46,40,37,34,32,30,77,72,63,30.36,30.08,20,6,20,0.00
2013-1-30,50,44,37,36,34,30,80,68,60,30.40,30.35,14,4,17,0.00
2013-1-31,50,38,29,37,32,27,92,78,55,30.37,30.27,7,1,7,0.00
2013-2-1,53,36,26,38,30,24,92,80,49,30.39,30.29,5,1,6,0.02
2013-2-2,48,33,23,35,28,21,92,83,61,30.41,30.26,5,1,5,0.00
2013-2-3,57,42,28,35,29,25,90,64,32,30.26,30.14,10,3,10,0.00
2013-2-4,54,41,33,35,30,27,83,66,43,30.16,29.94,4,1,5,0.00
2013-2-5,49,39,32,35,29,26,83,68,47,30.04,29.90,14,4,18,0.00
2013-2-6,49,39,32,29,27,25,80,64,44,30.09,29.89,7,2,7,0.00
2013-2-7,44,36,29,29,25,21,82,65,42,30.05,29.88,9,2,9,0.00
2013-2-8,44,31,20,27,22,17,90,71,41,30.14,30.05,7,2,10,0.00
2013-2-9,46,31,18,31,24,14,88,76,54,30.20,30.11,7,1,8,0.00
2013-2-10,48,33,22,30,24,20,91,70,41,30.27,30.19,7,1,7,0.00
2013-2-11,50,35,20,34,26,17,88,71,49,30.31,30.18,10,2,11,0.00
2013-2-12,51,39,29,36,30,26,90,73,50,30.39,30.31,14,3,15,0.00
2013-2-13,47,39,31,35,31,28,88,75,58,30.44,30.33,12,3,14,0.00
2013-2-14,57,39,25,39,32,23,93,78,46,30.49,30.39,8,2,8,0.00
2013-2-15,56,39,27,40,32,25,93,79,53,30.47,30.24,8,1,9,0.00
2013-2-16,53,38,28,38,30,24,92,74,46,30.25,30.14,14,3,16,0.00
2013-2-17,48,35,25,26,24,20,83,66,38,30.19,30.04,9,2,10,0.00
2013-2-18,40,32,24,28,24,20,89,74,56,30.04,29.74,6,1,7,0.00
2013-2-19,46,31,20,27,23,17,89,72,44,29.93,29.70,11,2,11,0.00
2013-2-20,44,32,18,28,22,15,89,71,45,30.03,29.93,13,2,15,0.00
2013-2-21,40,35,28,27,26,23,83,68,57,30.13,30.03,17,5,17,0.00
2013-2-22,50,39,30,35,29,24,92,70,51,30.12,29.85,19,6,20,0.00
2013-2-23,42,33,26,27,23,21,86,67,49,30.32,29.99,14,5,17,0.04
2013-2-24,50,34,21,28,23,17,85,67,38,30.36,30.06,8,2,8,0.00
2013-2-25,43,35,28,34,27,21,87,72,51,30.28,29.99,18,5,18,0.04
2013-2-26,50,36,22,25,19,10,81,55,22,30.33,30.19,10,2,10,0.00
2013-2-27,50,39,29,35,25,19,69,58,40,30.29,30.21,8,2,8,0.00
2013-2-28,55,51,45,42,40,38,80,68,59,30.42,30.28,13,5,13,0.00
2013-3-1,64,52,37,39,36,32,82,57,34,30.45,30.30,7,1,7,0.00
2013-3-2,57,45,36,39,35,31,83,69,47,30.30,30.11,15,3,18,0.00
2013-3-3,49,37,26,35,21,9,78,55,22,30.22,30.10,8,4,12,0.00
2013-3-4,50,34,17,24,19,13,85,59,33,30.21,29.96,11,2,11,0.00
2013-3-5,42,34,26,30,24,18,89,69,52,29.96,29.70,10,2,10,0.00
2013-3-6,40,34,29,36,29,24,93,83,61,29.95,29.56,15,3,16,0.35
2013-3-7,50,36,22,30,26,19,87,67,38,30.03,29.95,10,2,10,0.00
2013-3-8,51,38,28,32,28,23,89,69,41,30.13,29.98,10,2,10,0.00
2013-3-9,59,48,33,28,23,19,66,38,24,30.43,30.33,8,2,8,0.00
2013-3-10,60,51,43,39,34,23,79,54,25,30.39,30.32,17,4,17,0.00
2013-3-11,55,46,37,42,38,33,89,75,58,30.35,30.23,11,2,11,0.00
2013-3-12,64,48,33,41,35,25,92,66,25,30.24,30.11,12,2,12,0.00
2013-3-13,70,51,39,41,36,32,78,58,32,30.22,30.13,9,2,9,0.00
2013-3-14,69,51,38,42,34,22,82,56,25,30.20,30.06,16,4,17,0.00
2013-3-15,60,50,37,40,36,29,82,62,31,30.22,30.15,13,3,13,0.00
2013-3-16,53,41,32,36,32,28,89,70,45,30.15,29.94,18,5,18,0.04
2013-3-17,42,36,30,28,23,18,79,61,46,30.19,30.03,16,6,16,0.00
2013-3-18,55,40,26,28,24,19,79,57,25,30.20,30.11,10,3,10,0.00
2013-3-19,49,40,28,34,27,22,82,61,43,30.16,29.86,10,2,10,0.07
2013-3-20,54,44,34,43,35,27,89,72,55,30.00,29.64,17,9,20,0.23
2013-3-21,41,34,29,27,25,22,82,69,49,30.19,30.14,14,5,19,0.00
2013-3-22,43,33,25,24,20,15,88,63,34,30.28,30.17,13,4,17,0.00
2013-3-23,47,34,25,25,21,16,82,60,34,30.29,30.19,8,2,8,0.00
2013-3-24,48,37,25,27,23,19,79,60,42,30.23,30.10,8,2,9,0.00
2013-3-25,52,42,30,32,28,23,79,58,45,30.11,29.93,9,2,9,0.00
2013-3-26,53,45,38,38,35,29,82,68,55,30.01,29.95,8,2,9,0.00
2013-3-27,60,45,30,45,37,28,93,76,46,30.01,29.92,8,2,14,0.09
2013-3-28,61,48,40,46,41,38,93,79,49,30.14,30.01,9,2,9,0.15
2013-3-29,64,52,42,46,43,40,94,74,46,30.22,30.14,6,2,7,0.02
2013-4-1,65,55,42,44,42,38,87,63,45,30.14,30.04,12,4,12,0.00
2013-4-2,67,49,36,43,38,33,91,69,37,30.19,30.11,10,3,10,0.00
2013-4-3,70,52,33,41,36,30,90,60,26,30.17,29.98,7,2,7,0.00
2013-4-4,66,52,42,46,41,39,90,68,39,29.98,29.75,19,4,21,0.22
2013-4-5,57,47,39,41,39,37,93,76,50,29.99,29.91,15,3,16,0.00
2013-4-6,55,47,42,40,36,34,83,68,45,30.00,29.80,18,7,18,0.09
2013-4-7,48,43,33,39,33,27,83,67,47,29.88,29.67,31,9,31,0.08
2013-4-8,54,44,28,30,28,24,85,56,39,30.22,29.88,14,4,15,0.00
2013-4-9,62,44,24,36,29,21,89,61,29,30.32,30.22,7,2,7,0.00
2013-4-10,60,50,41,45,36,30,72,59,37,30.25,30.10,20,6,20,0.00
2013-4-11,57,43,29,33,29,25,86,61,37,30.24,30.11,14,3,14,0.00
2013-4-12,63,44,26,36,26,16,86,56,17,30.13,29.79,19,5,19,0.00
2013-4-13,49,42,34,26,22,19,62,47,34,30.02,29.87,21,8,22,0.00
2013-4-14,48,36,28,32,26,20,92,66,38,30.03,29.85,11,3,11,0.09
2013-4-15,47,36,31,35,31,28,93,84,58,30.10,29.87,12,2,13,0.17
2013-4-16,48,38,28,34,28,23,92,72,39,30.34,30.10,12,3,13,0.05
2013-4-17,54,40,23,30,25,18,91,61,27,30.42,30.33,10,2,12,0.00
2013-4-18,64,48,33,40,35,27,82,61,40,30.39,30.28,12,3,15,0.02
2013-4-19,59,51,43,41,38,35,74,63,47,30.28,30.15,17,6,17,0.00
2013-4-20,62,49,36,36,34,31,83,59,36,30.26,30.18,13,4,17,0.24
2013-4-21,60,47,32,42,36,28,87,66,47,30.23,30.15,15,4,17,0.00
2013-4-22,57,46,35,36,27,17,82,52,25,30.40,30.22,12,5,16,0.00
2013-4-23,66,44,22,23,16,6,71,39,7,30.39,30.11,14,3,15,0.00
2013-4-24,73,50,27,25,20,15,63,34,13,30.29,30.03,8,2,11,0.00
2013-4-25,78,55,34,37,29,20,61,39,22,30.14,30.02,17,3,17,0.00
2013-4-26,82,60,36,41,32,21,75,41,12,30.24,30.14,10,3,13,0.02
2013-5-3,76,66,50,36,34,30,46,30,21,30.29,30.19,14,5,14,0.00
2013-5-4,72,58,37,37,32,28,73,41,21,30.21,29.99,22,6,26,0.00
2013-5-5,79,63,47,37,34,31,54,35,22,29.99,29.82,16,6,19,0.11
2013-5-6,86,67,45,42,36,31,65,35,16,29.90,29.79,14,4,16,0.00
2013-5-7,84,66,47,49,42,34,83,47,20,29.98,29.85,14,3,14,0.00
2013-5-8,86,64,44,51,44,30,85,52,16,30.09,29.98,16,3,16,0.00
2013-5-9,89,68,48,49,45,36,85,50,16,30.15,30.06,19,3,19,0.00
2013-5-10,94,70,50,52,46,40,76,46,16,30.21,30.11,11,3,13,0.00
2013-5-11,91,69,53,52,49,46,78,53,23,30.21,30.06,8,2,9,0.06
2013-6-11,50,48,47,35,34,33,61,58,52,30.10,30.08,4,2,4,0.00
2013-6-12,66,52,38,38,35,31,79,56,35,30.14,30.08,9,4,9,0.00
2013-6-13,62,55,42,40,38,35,77,54,41,30.23,30.14,15,6,15,0.00
2013-6-14,77,56,39,38,36,31,80,51,19,30.24,30.03,7,3,7,0.00
2013-6-15,88,76,61,46,39,33,53,29,16,29.99,29.88,10,4,10,0.02
2013-6-16,83,62,50,52,45,40,70,55,27,30.10,29.97,17,3,17,0.00
2013-6-18,60,55,51,46,40,36,68,57,47,29.94,29.88,10,3,16,0.00
2013-6-19,64,54,48,40,38,36,70,56,37,30.05,29.91,21,7,21,0.00
2013-6-20,70,55,41,40,37,33,74,52,30,30.09,30.00,14,5,16,0.00
2013-6-21,63,54,44,45,41,36,87,62,43,30.12,30.08,9,2,13,0.00
2013-6-22,83,62,39,43,40,35,87,50,23,30.12,29.90,10,2,10,0.00
2013-6-23,68,62,54,57,50,42,94,68,40,29.92,29.73,7,2,8,0.20
2013-6-24,67,57,50,54,49,45,95,76,50,29.78,29.70,8,2,8,0.28
2013-6-25,66,59,53,55,51,48,94,75,55,29.93,29.75,8,2,10,0.22
2013-6-26,72,61,54,57,52,49,88,73,51,30.09,29.92,7,2,9,0.02
2013-6-27,90,70,49,57,54,47,92,61,32,30.19,30.07,10,3,14,0.00
2013-6-28,97,77,56,62,57,52,88,54,26,30.21,30.03,10,3,12,0.00
2013-6-29,91,78,63,62,58,54,81,53,32,30.10,30.01,13,4,13,0.00
2013-6-30,102,80,57,60,56,51,81,47,22,30.06,29.92,14,4,14,0.00
2013-7-1,103,86,74,64,58,54,63,40,22,30.08,29.97,11,4,12,0.00
2013-7-2,104,84,65,65,60,51,78,48,18,30.11,30.02,14,3,15,0.00
2013-7-3,97,81,65,57,50,36,67,36,22,30.12,30.01,13,5,16,0.00
2013-7-4,86,71,52,45,39,34,57,34,19,30.07,29.95,16,4,20,0.00
2013-7-5,85,65,47,46,39,30,75,43,16,30.00,29.89,14,4,19,0.00
2013-7-10,94,84,68,53,46,39,46,29,16,30.06,29.88,16,6,16,0.00
2013-7-11,89,71,54,48,42,29,71,38,16,30.00,29.88,13,4,13,0.00
2013-7-12,82,64,45,42,34,22,61,35,12,30.04,29.90,15,4,15,0.00
2013-7-13,88,66,43,42,35,25,76,39,12,30.12,30.02,11,3,11,0.00
2013-7-14,95,74,46,46,35,23,51,27,13,30.12,29.95,12,4,12,0.00
2013-7-15,93,74,53,43,38,35,58,30,14,30.03,29.85,15,5,18,0.00
2013-7-16,94,76,64,51,40,35,47,30,17,29.95,29.85,13,5,16,0.00
2013-7-17,96,77,54,49,41,33,63,32,13,30.14,29.95,12,4,16,0.00
2013-7-18,100,77,52,48,40,32,67,32,10,30.17,29.99,12,4,15,0.00
2013-7-19,97,69,53,43,35,24,62,33,7,30.08,29.97,12,2,12,0.00
2013-7-20,101,77,53,41,30,16,60,21,5,30.01,29.88,13,4,14,0.00
2013-7-21,106,89,66,44,35,24,37,16,6,29.93,29.85,14,4,14,0.00
2013-7-22,99,76,53,42,36,30,56,28,11,30.00,29.89,12,4,15,0.00
2013-7-23,86,64,56,41,34,29,50,33,17,30.00,29.94,3,1,3,0.00
2013-7-27,91,79,59,41,33,24,39,21,10,30.09,29.99,14,5,18,0.00
2013-7-28,88,68,47,44,36,29,62,35,16,30.03,29.93,17,3,17,0.00
2013-7-29,91,70,47,46,39,30,72,38,13,30.05,29.93,11,3,11,0.00
2013-7-30,89,62,48,51,44,30,72,52,13,30.15,30.05,8,2,8,0.00
2013-7-31,88,71,58,52,45,34,64,43,16,30.15,30.01,13,3,13,0.09
2013-8-1,77,64,54,59,50,43,86,64,42,30.11,30.01,16,4,16,0.08
2013-8-2,80,62,45,48,44,39,85,56,29,30.15,30.06,12,3,12,0.00
2013-8-3,91,70,46,49,42,33,85,44,16,30.15,30.03,9,3,10,0.00
2013-8-4,93,74,53,54,46,38,72,41,17,30.11,29.96,8,3,11,0.00
2013-8-5,96,76,56,54,47,34,72,41,13,30.07,29.98,11,3,13,0.00
2013-8-6,98,76,55,51,44,33,69,38,11,30.08,29.97,12,3,12,0.00
2013-8-7,89,74,54,48,42,36,60,35,16,30.07,30.00,19,4,19,0.00
2013-8-8,91,75,58,53,46,36,64,39,16,30.06,29.94,9,2,11,0.00
2013-8-9,91,72,58,56,50,43,83,50,21,30.04,29.88,14,3,16,0.11
2013-8-10,76,60,49,54,50,45,89,73,40,30.08,30.00,11,2,11,0.00
2013-8-11,86,75,63,53,48,45,65,41,25,30.11,30.01,10,4,10,0.00
2013-8-12,91,70,51,53,49,42,86,51,19,30.10,30.00,14,3,16,0.00
2013-8-13,95,73,51,51,47,42,76,45,17,30.14,29.99,8,2,9,0.00
2013-8-14,93,74,55,52,47,44,68,42,19,30.05,29.95,13,3,15,0.00
2013-8-15,92,72,53,56,49,42,71,47,22,30.06,29.95,13,3,15,0.00
2013-8-16,89,73,59,59,55,51,79,55,33,30.10,30.02,10,2,16,0.00
2013-8-17,91,72,56,57,53,46,83,55,24,30.13,30.02,11,3,15,0.00
2013-8-18,91,72,51,55,49,42,84,50,22,30.17,30.06,13,3,13,0.00
2013-8-19,96,73,53,52,49,44,76,47,20,30.15,30.04,14,4,14,0.00
2013-8-20,89,71,50,51,38,21,81,39,7,30.15,30.02,11,3,14,0.00
2013-8-21,91,71,51,45,37,33,52,32,15,30.11,29.99,10,3,11,0.00
2013-8-22,84,67,57,60,45,35,84,49,23,30.05,29.95,14,2,16,0.07
2013-8-23,84,69,54,54,50,44,83,55,26,29.98,29.89,14,4,14,0.00
2013-8-24,85,65,53,57,50,44,80,61,25,29.96,29.85,12,3,15,0.12
2013-8-25,75,61,52,57,53,45,93,78,52,30.01,29.92,14,1,14,2.80
2013-8-26,76,62,49,56,50,47,95,70,39,30.03,29.97,0,0,0,0.08
2013-8-27,88,66,47,56,50,45,91,61,27,30.03,29.85,0,0,0,0.00
2013-8-28,89,71,55,56,52,46,85,56,23,29.98,29.89,0,0,0,0.00
2013-8-29,85,69,59,56,54,51,82,62,31,30.12,29.96,0,0,0,0.00
2013-8-30,86,78,55,55,51,48,86,41,29,30.19,30.07,0,0,0,0.00
2013-9-2,88,80,71,54,50,46,52,37,24,29.97,29.87,7,2,7,0.00
2013-9-3,65,64,62,53,53,53,70,67,64,30.05,30.03,4,4,4,0.00
2013-9-4,86,75,55,53,47,42,78,44,21,30.05,29.96,9,3,9,0.00
2013-9-5,73,58,52,53,48,44,87,72,46,30.08,29.93,13,3,13,0.02
2013-9-6,67,61,54,51,48,46,74,62,53,30.14,30.11,3,2,4,0.55
2013-9-7,77,69,46,54,51,44,90,54,39,30.15,30.02,14,5,14,0.00
2013-9-8,78,68,49,53,50,46,89,56,35,30.14,30.08,12,4,12,0.10
2013-9-9,56,52,50,45,44,42,75,72,64,30.10,30.08,5,2,5,0.00
2013-9-10,87,81,72,51,48,45,42,32,24,30.06,29.96,13,7,13,0.00
2013-9-19,74,68,60,38,38,37,45,34,26,29.90,29.88,6,4,6,0.04
2013-9-20,43,43,43,32,32,32,67,67,67,29.86,29.85,1,1,1,0.00
2013-9-23,0,0,0,0,0,0,26,26,26,30.01,30.01,0,0,0,0.00
2013-11-17,46,44,43,32,32,31,64,62,57,30.00,29.99,0,0,0,0.00
2013-11-23,69,66,64,46,43,42,47,43,42,30.33,30.32,0,0,0,0.00
2013-11-30,59,47,42,38,30,24,67,51,42,30.29,30.22,8,3,9,0.00
2013-12-1,58,52,41,44,40,31,79,65,58,30.23,29.88,19,8,22,0.00
2013-12-2,47,37,29,41,32,22,92,80,55,29.95,29.82,19,5,19,0.95
2013-12-3,30,21,12,23,13,6,85,73,54,30.17,29.94,12,2,12,0.00
2013-12-4,12,9,6,6,4,1,80,77,75,30.22,30.17,2,0,2,0.00
2013-12-5,23,14,-1,12,7,-6,80,71,55,30.20,30.08,8,2,10,0.00
2013-12-6,14,12,10,10,8,6,86,84,79,30.11,29.93,11,4,11,0.00
2013-12-7,12,4,-12,8,-3,-18,86,72,54,30.30,29.98,11,4,12,0.05
2013-12-8,23,-1,-15,10,-8,-21,80,72,52,30.47,30.28,6,2,7,0.00
2013-12-9,30,9,-1,14,1,-6,81,73,48,30.48,30.35,12,3,13,0.00
2013-12-10,27,15,10,19,9,4,82,79,70,30.39,30.36,3,1,4,0.00
2013-12-11,34,23,13,24,19,10,89,84,66,30.35,30.29,5,3,5,0.00
2013-12-14,48,40,36,32,30,29,75,67,53,30.38,30.35,0,0,0,0.32
2013-12-15,54,41,36,39,32,28,78,69,47,30.39,30.32,4,1,4,0.00
2013-12-16,48,29,24,36,25,21,91,87,61,30.42,30.30,5,1,5,0.02
2013-12-17,42,34,29,30,26,23,79,72,62,30.24,30.19,3,2,3,0.00
2013-12-18,36,36,36,28,28,28,72,72,72,29.95,29.95,2,2,2,0.00
2013-12-19,34,28,21,20,14,12,74,57,47,30.21,30.10,7,2,7,0.00
2013-12-20,43,38,27,36,31,21,81,77,73,30.02,29.80,15,7,15,0.04
2013-12-21,44,43,41,36,35,34,76,74,74,29.95,29.85,17,10,17,0.00